1485374401.11,34251,10.5,73560.8,-12.31,-41.11,-41.23,0,*61
1485374402.35,34252,10.5,73570.3,-12.31,-41.17,-41.17,0,*63
1485374403.59,34253,10.5,73572.8,-12.31,-41.17,-41.17,0,*62
1485374404.8,34254,10.5,73576.8,-12.33,-41.11,-41.17,0,*61
1485374406.02,34255,10.5,73578.5,-12.33,-41.17,-41.17,0,*66
1485374407.25,34256,10.5,73574.5,-12.33,-40.97,-41.17,0,*6C
1485374408.49,34257,10.5,73564.3,-12.33,-41.11,-41.35,0,*62
1485374409.73,34258,10.5,73566.5,-12.33,-41.17,-41.35,0,*6B
1485374411.0,34259,10.5,73564.8,-12.33,-41.23,-41.23,0,*6A
1485374412.27,34260,10.5,73564.8,-12.31,-41.11,-41.23,0,*63
1485374413.49,34261,10.5,73566.0,-12.33,-41.11,-41.17,0,*67
1485374414.71,34262,10.5,73570.3,-12.33,-40.91,-41.11,0,*6B
1485374415.92,34263,10.5,73574.3,-12.33,-40.91,-41.11,0,*6A
1485374417.16,34264,10.5,73566.8,-12.33,-40.79,-40.91,0,*62
1485374418.43,34265,10.5,73570.3,-12.33,-40.79,-40.97,0,*65
1485374419.67,34266,10.5,73568.0,-12.33,-40.97,-41.11,0,*69
1485374420.94,34267,10.5,73568.0,-12.33,-40.97,-40.97,0,*67
1485374422.18,34268,10.5,73564.3,-12.33,-40.79,-40.91,0,*6E
1485374423.4,34269,10.5,73566.5,-12.33,-40.73,-40.91,0,*65
1485374424.61,34270,10.5,73562.3,-12.33,-40.73,-40.91,0,*6D
1485374425.85,34271,10.5,73560.3,-12.33,-40.73,-40.79,0,*6A
1485374427.11,34272,10.5,73554.0,-12.33,-40.59,-40.79,0,*61
1485374428.35,34273,10.5,73554.0,-12.33,-40.59,-40.91,0,*66
1485374429.58,34274,10.5,73560.8,-12.33,-40.59,-40.73,0,*6D
1485374430.82,34275,10.5,73554.8,-12.33,-40.73,-40.79,0,*6E
1485374432.03,34276,10.5,73544.0,-12.33,-40.73,-40.91,0,*6B
1485374433.27,34277,10.5,73538.8,-12.33,-40.97,-41.17,0,*6F
1485374434.54,34278,10.5,73530.8,-12.31,-41.17,-41.35,0,*6B
1485374435.78,34279,10.5,73534.5,-12.33,-41.17,-41.35,0,*68
1485374437.02,34280,10.5,73526.0,-12.33,-41.17,-41.23,0,*69
1485374438.26,34281,10.5,73528.5,-12.33,-41.17,-41.23,0,*68
1485374439.53,34282,10.5,73532.8,-12.33,-41.23,-41.35,0,*6B
1485374440.74,34283,10.5,73536.0,-12.33,-41.11,-41.17,0,*6B
1485374441.96,34284,10.5,73542.8,-12.33,-41.11,-41.11,0,*6A
1485374443.17,34285,10.5,73540.0,-12.33,-41.11,-41.17,0,*6D
1485374444.42,34286,10.5,73540.5,-12.35,-40.91,-41.11,0,*67
1485374445.66,34287,10.5,73550.5,-12.35,-40.91,-41.11,0,*66
1485374446.9,34288,10.5,73556.8,-12.39,-40.97,-41.17,0,*65
1485374448.2,34289,10.5,73558.5,-12.35,-40.79,-40.97,0,*61
1485374449.47,34290,10.5,73562.3,-12.35,-40.91,-40.97,0,*6F
1485374450.75,34291,10.5,73568.0,-12.35,-40.91,-40.97,0,*6E
1485374452.0,34292,10.5,73568.3,-12.35,-40.91,-41.11,0,*62
1485374453.24,34293,10.5,73560.8,-12.39,-40.97,-41.17,0,*6F
1485374454.5,34294,10.5,73556.0,-12.35,-41.11,-41.23,0,*6C
1485374455.74,34295,10.5,73558.3,-12.35,-41.11,-41.11,0,*6C
1485374457.04,34296,10.5,73542.8,-12.35,-40.97,-41.23,0,*61
1485374458.33,34297,10.5,73534.3,-12.35,-41.23,-41.23,0,*6E
1485374459.55,34298,10.5,73546.3,-12.39,-41.29,-41.41,0,*63
1485374460.77,34299,10.5,73550.3,-12.39,-41.03,-41.03,0,*6C
1485374462.05,34300,10.5,73534.3,-12.35,-40.91,-40.97,0,*67
1485374463.27,34301,10.5,73540.3,-12.39,-41.03,-41.17,0,*69
1485374464.54,34302,10.5,73552.3,-12.39,-40.85,-40.97,0,*6C
1485374465.81,34303,10.5,73540.5,-12.39,-40.85,-40.97,0,*6D
1485374467.05,34304,10.5,73536.8,-12.39,-40.79,-41.03,0,*65
1485374468.3,34305,10.5,73552.8,-12.39,-40.85,-41.03,0,*67
1485374469.54,34306,10.5,73560.3,-12.35,-40.73,-40.91,0,*6B
1485374470.8,34307,10.5,73564.5,-12.35,-40.73,-40.79,0,*6C
1485374472.07,34308,10.5,73564.0,-12.35,-40.59,-40.73,0,*61
1485374473.36,34309,10.5,73562.0,-12.35,-40.41,-40.59,0,*61
1485374474.63,34310,10.5,73558.8,-12.35,-40.35,-40.59,0,*6A
1485374475.84,34311,10.5,73550.8,-12.39,-40.47,-40.65,0,*6D
1485374477.1,34312,10.5,73554.3,-12.35,-40.21,-40.53,0,*67
1485374478.37,34313,10.5,73550.3,-12.35,-40.21,-40.53,0,*66
1485374479.61,34314,10.5,73540.0,-12.35,-40.35,-40.53,0,*64
1485374480.87,34315,10.5,73546.0,-12.35,-40.35,-40.59,0,*6F
1485374482.09,34316,10.5,73544.5,-12.33,-40.15,-40.35,0,*62
1485374483.32,34317,10.5,73542.0,-12.33,-40.15,-40.53,0,*63
1485374484.58,34318,10.5,73544.5,-12.33,-40.21,-40.41,0,*68
1485374485.82,34319,10.5,73546.5,-12.33,-40.35,-40.59,0,*65
1485374487.03,34320,10.5,73550.3,-12.33,-40.35,-40.53,0,*65
1485374488.24,34321,10.5,73540.8,-12.33,-40.53,-40.73,0,*66
1485374489.44,34322,10.5,73548.5,-12.33,-40.53,-40.73,0,*65
1485374490.71,34323,10.5,73546.5,-12.31,-40.53,-40.59,0,*6E
1485374491.97,34324,10.5,73550.0,-12.31,-40.53,-40.59,0,*69
1485374493.21,34325,10.5,73548.5,-12.33,-40.21,-40.53,0,*65
1485374494.46,34326,10.5,73548.3,-12.31,-40.15,-40.15,0,*61
1485374495.7,34327,10.5,73544.3,-12.33,-39.97,-40.15,0,*66
1485374496.91,34328,10.5,73544.0,-12.33,-40.35,-40.53,0,*6D
1485374498.18,34329,10.5,73544.3,-12.33,-40.41,-40.59,0,*65
1485374499.45,34330,10.5,73538.8,-12.31,-40.59,-40.73,0,*6E
1485374500.69,34331,10.5,73538.0,-12.33,-40.41,-40.53,0,*66
1485374501.98,34332,10.5,73546.8,-12.31,-40.21,-40.41,0,*62
1485374503.24,34333,10.5,73550.5,-12.33,-40.21,-40.41,0,*61
1485374504.54,34334,10.5,73548.0,-12.31,-40.41,-40.59,0,*6B
1485374505.78,34335,10.5,73562.5,-12.29,-40.29,-40.47,0,*62
1485374507.0,34336,10.5,73556.3,-12.29,-40.35,-40.53,0,*69
1485374508.21,34337,10.5,73554.3,-12.29,-40.53,-40.73,0,*6A
1485374509.42,34338,10.5,73552.0,-12.29,-40.47,-40.65,0,*67
1485374510.63,34339,10.5,73544.0,-12.29,-40.53,-40.73,0,*64
1485374511.9,34340,10.5,73552.0,-12.31,-40.79,-40.91,0,*67
1485374513.18,34341,10.5,73554.0,-12.31,-40.91,-40.97,0,*66
1485374514.43,34342,10.5,73566.5,-12.31,-40.73,-40.91,0,*6F
1485374515.7,34343,10.5,73568.8,-12.31,-40.79,-40.91,0,*64
1485374516.98,34344,10.5,73566.0,-12.31,-40.91,-40.97,0,*63
1485374518.23,34345,10.5,73560.8,-12.31,-40.91,-41.11,0,*6D
1485374519.5,34346,10.5,73560.5,-12.31,-40.97,-41.17,0,*6E
1485374520.72,34347,10.5,73568.3,-12.33,-40.91,-41.11,0,*6D
1485374521.95,34348,10.5,73564.3,-12.33,-40.73,-40.79,0,*61
1485374523.21,34349,10.5,73572.0,-12.31,-40.53,-40.79,0,*60
1485374524.44,34350,10.5,73568.8,-12.33,-40.59,-40.73,0,*6A
1485374525.73,34351,10.5,73574.3,-12.31,-40.59,-40.79,0,*63
1485374526.99,34352,10.5,73570.3,-12.33,-40.59,-40.79,0,*62
1485374528.25,34353,10.5,73562.3,-12.33,-40.79,-40.79,0,*61
1485374529.53,34354,10.5,73556.0,-12.31,-40.91,-40.97,0,*62
1485374530.77,34355,10.5,73558.5,-12.33,-40.79,-40.91,0,*61
1485374532.04,34356,10.5,73556.3,-12.33,-40.97,-40.97,0,*64
1485374533.33,34357,10.5,73560.0,-12.31,-40.79,-40.97,0,*67
1485374534.61,34358,10.5,73558.0,-12.31,-40.73,-40.97,0,*62
1485374535.82,34359,10.5,73566.3,-12.33,-40.73,-40.91,0,*67
1485374537.04,34360,10.5,73568.8,-12.33,-40.73,-40.91,0,*6D
1485374538.29,34361,10.5,73564.5,-12.31,-40.73,-40.91,0,*6E
1485374539.52,34362,10.5,73568.3,-12.31,-40.53,-40.73,0,*63
1485374540.74,34363,10.5,73570.8,-12.33,-40.35,-40.53,0,*62
1485374541.98,34364,10.5,73572.3,-12.33,-40.35,-40.59,0,*6F
1485374543.25,34365,10.5,73576.5,-12.31,-40.41,-40.73,0,*67
1485374544.51,34366,10.5,73578.0,-12.31,-40.59,-40.73,0,*6D
1485374545.78,34367,10.5,73576.8,-12.31,-40.79,-40.91,0,*62
1485374547.05,34368,10.5,73570.8,-12.33,-40.79,-40.97,0,*69
1485374548.3,34369,10.5,73566.3,-12.31,-40.91,-41.11,0,*63
1485374549.52,34370,10.5,73564.5,-12.33,-40.91,-40.91,0,*60
1485374550.74,34371,10.5,73560.3,-12.33,-40.73,-40.91,0,*6D
1485374552.01,34372,10.5,73552.3,-12.31,-40.79,-40.91,0,*66
1485374553.3,34373,10.5,73554.0,-12.31,-40.59,-40.79,0,*63
1485374554.59,34374,10.5,73552.8,-12.31,-40.59,-40.79,0,*64
1485374555.83,34375,10.5,73558.8,-12.33,-40.59,-40.73,0,*6D
1485374557.04,34376,10.5,73560.3,-12.29,-40.47,-40.65,0,*6D
1485374558.3,34377,10.5,73564.0,-12.31,-40.21,-40.53,0,*60
1485374559.55,34378,10.5,73570.3,-12.31,-40.35,-40.53,0,*6A
1485374560.79,34379,10.5,73554.8,-12.33,-40.41,-40.73,0,*68
1485374562.0,34380,10.5,73562.3,-12.29,-40.73,-40.73,0,*64
1485374563.25,34381,10.5,73560.0,-12.31,-40.73,-40.91,0,*60
1485374564.46,34382,10.5,73542.0,-12.33,-40.73,-40.91,0,*61
1485374565.68,34383,10.5,73552.0,-12.33,-40.73,-40.91,0,*60
1485374566.94,34384,10.5,73562.3,-12.31,-40.73,-40.79,0,*63
1485374568.18,34385,10.5,73560.8,-12.31,-40.53,-40.73,0,*6A
1485374569.45,34386,10.5,73560.0,-12.31,-40.35,-40.59,0,*61
1485374570.71,34387,10.5,73570.0,-12.31,-40.21,-40.53,0,*6F
1485374571.98,34388,10.5,73544.0,-12.31,-40.41,-40.73,0,*64
1485374573.27,34389,10.5,73548.3,-12.31,-40.59,-40.79,0,*66
1485374574.57,34390,10.5,73540.3,-12.31,-40.79,-40.97,0,*6C
1485374575.86,34391,10.5,73544.8,-12.31,-40.79,-40.79,0,*6D
1485374577.13,34392,10.5,73544.3,-12.31,-40.73,-40.97,0,*64
1485374578.39,34393,10.5,73542.3,-12.31,-40.73,-40.79,0,*65
1485374579.64,34394,10.5,73550.0,-12.31,-40.73,-40.91,0,*64
1485374580.9,34395,10.5,73548.3,-12.31,-40.73,-40.79,0,*63
1485374582.14,34396,10.5,73548.5,-12.31,-40.53,-40.91,0,*64
1485374583.38,34397,10.5,73552.8,-12.33,-40.59,-40.73,0,*61
1485374584.62,34398,10.5,73560.0,-12.31,-40.35,-40.53,0,*64
1485374585.9,34399,10.5,73562.0,-12.31,-40.41,-40.53,0,*66
1485374587.16,34400,10.5,73564.5,-12.31,-40.59,-40.73,0,*6A
1485374588.43,34401,10.5,73560.8,-12.31,-40.73,-40.79,0,*69
1485374589.67,34402,10.5,73554.0,-12.29,-40.65,-40.85,0,*67
1485374590.88,34403,10.5,73562.5,-12.29,-40.65,-40.91,0,*63
1485374592.13,34404,10.5,73562.0,-12.31,-40.73,-40.91,0,*6A
1485374593.39,34405,10.5,73556.3,-12.31,-40.59,-40.73,0,*6F
1485374594.63,34406,10.5,73556.3,-12.31,-40.53,-40.73,0,*66
1485374595.87,34407,10.5,73562.8,-12.31,-40.53,-40.73,0,*67
1485374597.13,34408,10.5,73566.0,-12.31,-40.53,-40.59,0,*60
1485374598.35,34409,10.5,73568.5,-12.29,-40.47,-40.73,0,*65
1485374599.64,34410,10.5,73564.3,-12.31,-40.41,-40.79,0,*68
1485374600.85,34411,10.5,73566.8,-12.29,-40.65,-40.73,0,*6C
1485374602.12,34412,10.5,73566.3,-12.31,-40.79,-40.91,0,*67
1485374603.42,34413,10.5,73564.0,-12.31,-40.79,-40.97,0,*60
1485374604.65,34414,10.5,73552.3,-12.33,-40.59,-40.73,0,*6D
1485374605.92,34415,10.5,73554.3,-12.31,-40.79,-40.91,0,*60
1485374607.21,34416,10.5,73562.3,-12.31,-40.59,-40.79,0,*67
1485374608.5,34417,10.5,73566.5,-12.31,-40.79,-40.79,0,*64
1485374609.79,34418,10.5,73574.3,-12.31,-40.79,-40.97,0,*6B
1485374611.04,34419,10.5,73576.0,-12.31,-40.73,-40.91,0,*66
1485374612.29,34420,10.5,73574.8,-12.31,-40.91,-40.91,0,*60
1485374613.51,34421,10.5,73576.8,-12.33,-40.73,-40.91,0,*6F
1485374614.78,34422,10.5,73570.0,-12.31,-40.79,-40.91,0,*64
1485374616.02,34423,10.5,73568.8,-12.33,-40.79,-41.11,0,*6E
1485374617.25,34424,10.5,73574.3,-12.33,-40.97,-41.17,0,*6F
1485374618.51,34425,10.5,73570.3,-12.31,-40.91,-41.11,0,*6C
1485374619.74,34426,10.5,73570.5,-12.33,-40.79,-40.91,0,*62
1485374621.01,34427,10.5,73554.5,-12.33,-40.79,-40.97,0,*65
1485374622.25,34428,10.5,73560.8,-12.33,-40.79,-40.91,0,*6C
1485374623.52,34429,10.5,73562.3,-12.33,-40.79,-40.97,0,*6B
1485374624.73,34430,10.5,73562.5,-12.33,-40.73,-40.91,0,*6F
1485374625.97,34431,10.5,73552.3,-12.33,-40.41,-40.73,0,*63
1485374627.23,34432,10.5,73550.0,-12.35,-40.73,-40.79,0,*6D
1485374628.5,34433,10.5,73544.5,-12.33,-40.41,-40.59,0,*69
1485374629.75,34434,10.5,73534.5,-12.31,-40.15,-40.35,0,*67
1485374630.97,34435,10.5,73522.5,-12.33,-40.15,-40.35,0,*64
1485374632.21,34436,10.5,73548.8,-12.33,-40.35,-40.59,0,*6F
1485374633.48,34437,10.5,73544.3,-12.33,-40.41,-40.59,0,*6D
1485374634.77,34438,10.5,73540.5,-12.31,-40.59,-40.79,0,*6B
1485374636.04,34439,10.5,73544.5,-12.31,-40.73,-40.79,0,*62
1485374637.3,34440,10.5,73544.8,-12.31,-40.73,-40.79,0,*6C
1485374638.56,34441,10.5,73544.3,-12.33,-40.79,-40.97,0,*65
1485374639.81,34442,10.5,73550.8,-12.33,-40.59,-40.91,0,*62
1485374641.05,34443,10.5,73552.5,-12.33,-40.79,-40.91,0,*61
1485374642.31,34444,10.5,73556.3,-12.31,-40.59,-40.73,0,*6A
1485374643.55,34445,10.5,73568.3,-12.33,-40.41,-40.73,0,*60
1485374644.79,34446,10.5,73578.8,-12.31,-40.53,-40.73,0,*62
1485374646.06,34447,10.5,73578.8,-12.33,-40.41,-40.79,0,*68
1485374647.26,34448,10.5,73576.5,-12.33,-40.53,-40.73,0,*6E
1485374648.5,34449,10.5,73566.3,-12.33,-40.41,-40.73,0,*6C
1485374649.74,34450,10.5,73558.5,-12.31,-40.53,-40.73,0,*65
1485374651.01,34451,10.5,73566.8,-12.33,-40.41,-40.59,0,*6D
1485374652.28,34452,10.5,73578.3,-12.33,-40.41,-40.59,0,*6E
1485374653.55,34453,10.5,73580.0,-12.31,-40.59,-40.73,0,*6C
1485374654.76,34454,10.5,73574.3,-12.33,-40.53,-40.53,0,*61
1485374656.03,34455,10.5,73578.0,-12.33,-40.41,-40.59,0,*69
1485374657.29,34456,10.5,73568.8,-12.31,-40.21,-40.53,0,*64
1485374658.55,34457,10.5,73564.0,-12.31,-40.21,-40.53,0,*65
1485374659.81,34458,10.5,73566.0,-12.33,-40.21,-40.41,0,*6B
1485374661.07,34459,10.5,73558.8,-12.33,-40.15,-40.41,0,*6D
1485374662.32,34460,10.5,73556.0,-12.33,-40.15,-40.41,0,*67
1485374663.56,34461,10.5,73554.8,-12.31,-40.03,-40.15,0,*62
1485374664.8,34462,10.5,73556.3,-12.33,-39.97,-40.15,0,*60
1485374666.03,34463,10.5,73562.3,-12.33,-40.03,-40.21,0,*65
1485374667.29,34464,10.5,73554.8,-12.33,-40.21,-40.41,0,*64
1485374668.55,34465,10.5,73562.8,-12.31,-40.15,-40.35,0,*63
1485374669.79,34466,10.5,73558.3,-12.31,-40.35,-40.53,0,*62
1485374671.03,34467,10.5,73552.8,-12.33,-40.35,-40.59,0,*6B
1485374672.33,34468,10.5,73548.0,-12.31,-40.41,-40.59,0,*65
1485374673.61,34469,10.5,73556.5,-12.31,-40.15,-40.21,0,*6A
1485374674.87,34470,10.5,73560.0,-12.31,-39.97,-40.15,0,*61
1485374676.12,34471,10.5,73562.3,-12.29,-39.79,-39.91,0,*6B
1485374677.39,34472,10.5,73548.0,-12.29,-39.97,-40.29,0,*65
1485374678.64,34473,10.5,73550.8,-12.27,-40.15,-40.53,0,*63
1485374679.89,34474,10.5,73558.0,-12.29,-39.91,-40.09,0,*67
1485374681.16,34475,10.5,73554.8,-12.29,-39.97,-40.09,0,*60
1485374682.41,34476,10.5,73554.0,-12.29,-39.79,-39.91,0,*6C
1485374683.7,34477,10.5,73550.5,-12.27,-39.53,-39.79,0,*6D
1485374684.94,34478,10.5,73554.3,-12.27,-39.47,-39.65,0,*6A
1485374686.16,34479,10.5,73554.5,-12.29,-39.47,-39.65,0,*65
1485374687.41,34480,10.5,73558.8,-12.29,-39.65,-39.71,0,*66
1485374688.68,34481,10.5,73568.5,-12.27,-39.65,-39.71,0,*69
1485374689.98,34482,10.5,73564.0,-12.27,-39.71,-39.79,0,*67
1485374691.28,34483,10.5,73560.5,-12.27,-39.79,-39.79,0,*6E
1485374692.55,34484,10.5,73556.0,-12.23,-39.59,-39.65,0,*62
1485374693.82,34485,10.5,73560.0,-12.23,-39.91,-40.09,0,*63
1485374695.06,34486,10.5,73556.5,-12.23,-39.85,-39.91,0,*6A
1485374696.3,34487,10.5,73558.8,-12.23,-39.85,-40.03,0,*6E
1485374697.57,34488,10.5,73562.8,-12.23,-39.71,-39.85,0,*6A
1485374698.8,34489,10.5,73560.8,-12.23,-39.85,-40.03,0,*60
1485374700.09,34490,10.5,73556.5,-12.23,-40.09,-40.29,0,*6A
1485374701.36,34491,10.5,73552.0,-12.23,-39.91,-40.09,0,*66
1485374702.57,34492,10.44,73554.3,-12.21,-40.03,-40.35,0,*6D
1485374703.84,34493,10.5,73550.5,-12.23,-40.03,-40.09,0,*61
1485374705.07,34494,10.5,73554.0,-12.21,-39.97,-40.03,0,*6D
1485374706.34,34495,10.5,73558.0,-12.21,-39.79,-39.97,0,*6F
1485374707.59,34496,10.5,73560.3,-12.21,-39.79,-39.85,0,*6F
1485374708.85,34497,10.5,73560.8,-12.23,-39.71,-39.85,0,*64
1485374710.1,34498,10.5,73562.0,-12.21,-39.79,-39.85,0,*61
1485374711.31,34499,10.5,73564.5,-12.21,-39.85,-40.03,0,*63
1485374712.61,34500,10.5,73562.8,-12.19,-39.79,-39.97,0,*69
1485374713.85,34501,10.5,73560.8,-12.19,-39.65,-39.85,0,*66
1485374715.09,34502,10.5,73562.0,-12.19,-39.85,-40.15,0,*6C
1485374716.33,34503,10.5,73562.5,-12.21,-40.03,-40.21,0,*61
1485374717.62,34504,10.5,73560.8,-12.19,-39.97,-40.21,0,*6E
1485374718.88,34505,10.5,73562.3,-12.19,-40.03,-40.21,0,*6C
1485374720.14,34506,10.5,73568.3,-12.19,-39.97,-40.15,0,*6B
1485374721.41,34507,10.5,73564.0,-12.19,-40.03,-40.21,0,*6E
1485374722.7,34508,10.5,73572.0,-12.19,-39.97,-40.21,0,*62
1485374723.94,34509,10.5,73570.3,-12.19,-39.85,-40.03,0,*60
1485374725.24,34510,10.5,73572.5,-12.19,-39.59,-39.79,0,*6A
1485374726.51,34511,10.5,73568.5,-12.17,-39.71,-39.79,0,*6F
1485374727.78,34512,10.5,73568.8,-12.17,-39.79,-39.97,0,*64
1485374729.0,34513,10.5,73564.8,-12.13,-39.85,-39.91,0,*64
1485374730.24,34514,10.5,73566.3,-12.17,-39.91,-40.09,0,*6D
1485374731.49,34515,10.5,73570.0,-12.17,-39.91,-40.09,0,*6C
1485374732.73,34516,10.5,73564.8,-12.13,-39.71,-39.91,0,*6A
1485374733.95,34517,10.5,73568.0,-12.13,-39.85,-39.91,0,*60
1485374735.19,34518,10.5,73566.8,-12.13,-39.53,-39.65,0,*6F
1485374736.45,34519,10.5,73570.5,-12.17,-39.53,-39.71,0,*6F
1485374737.69,34520,10.5,73568.0,-12.13,-39.71,-39.85,0,*6A
1485374738.96,34521,10.5,73568.3,-12.13,-39.71,-39.71,0,*60
1485374740.23,34522,10.5,73572.8,-12.11,-39.91,-40.21,0,*64
1485374741.5,34523,10.5,73574.8,-12.11,-40.03,-40.09,0,*6A
1485374742.76,34524,10.5,73568.3,-12.13,-40.09,-40.29,0,*67
1485374744.0,34525,10.5,73566.0,-12.13,-40.03,-40.09,0,*6E
1485374745.27,34526,10.5,73560.5,-12.11,-39.71,-39.91,0,*6B
1485374746.54,34527,10.5,73562.0,-12.11,-39.85,-40.09,0,*6E
1485374747.79,34528,10.5,73570.8,-12.11,-39.85,-39.91,0,*6E
1485374749.02,34529,10.5,73564.5,-12.09,-40.03,-40.21,0,*63
1485374750.31,34530,10.5,73566.0,-12.11,-40.29,-40.41,0,*6C
1485374751.6,34531,10.5,73570.0,-12.11,-40.29,-40.41,0,*6D
1485374752.84,34532,10.5,73572.8,-12.09,-40.47,-40.59,0,*66
1485374754.07,34533,10.5,73568.5,-12.11,-40.47,-40.65,0,*61
1485374755.37,34534,10.5,73570.8,-12.11,-40.41,-40.59,0,*6F
1485374756.66,34535,10.5,73574.0,-12.11,-40.29,-40.41,0,*69
1485374757.92,34536,10.5,73574.0,-12.11,-40.41,-40.47,0,*62
1485374759.21,34537,10.5,73576.8,-12.11,-40.21,-40.21,0,*65
1485374760.49,34538,10.5,73572.3,-12.11,-40.29,-40.29,0,*6A
1485374761.79,34539,10.5,73562.3,-12.11,-40.09,-40.41,0,*67
1485374763.07,34540,10.5,73568.0,-12.11,-40.21,-40.41,0,*63
1485374764.36,34541,10.5,73582.3,-12.11,-40.21,-40.41,0,*62
1485374765.62,34542,10.5,73582.5,-12.11,-40.41,-40.47,0,*61
1485374766.89,34543,10.5,73582.8,-12.11,-40.59,-40.65,0,*69
1485374768.12,34544,10.5,73586.5,-12.09,-40.59,-40.65,0,*67
1485374769.41,34545,10.5,73582.3,-12.11,-40.41,-40.59,0,*69
1485374770.65,34546,10.5,73578.8,-12.09,-40.59,-40.65,0,*65
1485374771.91,34547,10.5,73568.0,-12.11,-40.47,-40.59,0,*6D
1485374773.17,34548,10.5,73560.8,-12.11,-40.29,-40.47,0,*65
1485374774.41,34549,10.5,73560.8,-12.09,-40.47,-40.59,0,*6A
1485374775.67,34550,10.5,73560.8,-12.11,-40.65,-40.85,0,*6A
1485374776.94,34551,10.5,73558.5,-12.11,-40.85,-41.03,0,*6A
1485374778.2,34552,10.5,73554.0,-12.11,-40.79,-41.03,0,*6A
1485374779.45,34553,10.5,73560.5,-12.11,-40.91,-41.03,0,*6D
1485374780.7,34554,10.5,73566.8,-12.13,-40.85,-41.03,0,*6D
1485374781.95,34555,10.5,73570.5,-12.11,-41.03,-41.03,0,*61
1485374783.22,34556,10.5,73568.5,-12.11,-40.91,-41.23,0,*6A
1485374784.49,34557,10.5,73574.5,-12.11,-41.03,-41.23,0,*61
1485374785.73,34558,10.5,73586.3,-12.11,-41.03,-41.29,0,*64
1485374787.0,34559,10.5,73588.3,-12.11,-40.85,-41.03,0,*62
1485374788.27,34560,10.5,73584.3,-12.11,-40.79,-41.03,0,*6B
1485374789.51,34561,10.5,73582.8,-12.13,-40.85,-41.03,0,*6B
1485374790.78,34562,10.5,73580.5,-12.11,-40.85,-41.03,0,*6A
1485374792.02,34563,10.5,73576.3,-12.13,-40.85,-41.03,0,*69
1485374793.24,34564,10.5,73578.5,-12.13,-41.03,-41.11,0,*62
1485374794.46,34565,10.5,73580.3,-12.17,-40.91,-41.11,0,*6D
1485374795.68,34566,10.5,73578.0,-12.13,-41.03,-41.11,0,*60
1485374796.93,34567,10.5,73580.0,-12.13,-40.91,-41.23,0,*6A
1485374798.17,34568,10.5,73572.8,-12.17,-40.97,-41.17,0,*60
1485374799.41,34569,10.5,73566.5,-12.13,-40.85,-40.91,0,*69
1485374800.63,34570,10.5,73562.3,-12.17,-40.91,-40.91,0,*60
1485374801.88,34571,10.5,73566.3,-12.17,-40.73,-40.97,0,*6B
1485374803.11,34572,10.5,73562.8,-12.13,-40.65,-40.85,0,*68
1485374804.38,34573,10.5,73558.5,-12.13,-40.59,-40.85,0,*66
1485374805.63,34574,10.5,73546.3,-12.17,-40.91,-40.97,0,*62
1485374806.87,34575,10.5,73544.3,-12.13,-40.85,-41.03,0,*6E
1485374808.09,34576,10.5,73548.3,-12.13,-40.91,-41.03,0,*68
1485374809.37,34577,10.5,73544.0,-12.17,-40.97,-40.97,0,*67
1485374810.61,34578,10.5,73540.5,-12.13,-40.85,-41.03,0,*63
1485374811.83,34579,10.5,73550.8,-12.13,-40.91,-40.91,0,*6D
1485374813.07,34580,10.5,73560.5,-12.17,-41.11,-40.97,0,*60
1485374814.32,34581,10.5,73564.8,-12.13,-40.85,-41.03,0,*65
1485374815.54,34582,10.5,73556.3,-12.13,-40.91,-41.03,0,*63
1485374816.78,34583,10.5,73564.5,-12.17,-40.97,-41.17,0,*65
1485374817.99,34584,10.5,73578.8,-12.17,-41.11,-41.17,0,*6D
1485374819.23,34585,10.5,73582.3,-12.17,-40.97,-41.29,0,*6E
1485374820.45,34586,10.5,73578.5,-12.13,-41.03,-41.11,0,*6E
1485374821.66,34587,10.5,73572.0,-12.17,-41.11,-41.17,0,*6E
1485374822.87,34588,10.5,73576.5,-12.17,-41.11,-41.17,0,*61
1485374824.1,34589,10.5,73558.5,-12.13,-40.91,-41.03,0,*68
1485374825.31,34590,10.5,73550.5,-12.17,-41.11,-41.29,0,*65
1485374826.52,34591,10.5,73544.3,-12.17,-41.11,-41.29,0,*64
1485374827.76,34592,10.5,73542.3,-12.17,-40.97,-41.17,0,*65
1485374828.98,34593,10.5,73542.8,-12.17,-40.91,-41.11,0,*64
1485374830.23,34594,10.5,73544.0,-12.17,-40.91,-40.97,0,*6C
1485374831.47,34595,10.5,73550.5,-12.17,-40.73,-40.97,0,*61
1485374832.74,34596,10.44,73546.8,-12.17,-40.85,-40.97,0,*6B
1485374833.96,34597,10.5,73552.3,-12.17,-40.91,-41.11,0,*60
1485374835.21,34598,10.5,73554.3,-12.17,-40.91,-40.97,0,*60
1485374836.45,34599,10.5,73536.5,-12.17,-40.97,-41.29,0,*63
1485374837.69,34600,10.5,73530.0,-12.17,-41.03,-41.23,0,*66
1485374838.93,34601,10.5,73534.3,-12.17,-41.29,-41.35,0,*68
1485374840.13,34602,10.5,73528.5,-12.17,-41.17,-41.49,0,*6D
1485374841.43,34603,10.5,73530.8,-12.19,-41.23,-41.55,0,*68
1485374842.73,34604,10.5,73546.5,-12.19,-41.35,-41.55,0,*68
1485374843.99,34605,10.5,73538.8,-12.19,-41.23,-41.61,0,*69
1485374845.29,34606,10.5,73542.0,-12.19,-41.23,-41.55,0,*6D
1485374846.58,34607,10.5,73554.8,-12.19,-41.23,-41.55,0,*6C
1485374847.85,34608,10.5,73550.5,-12.19,-41.35,-41.41,0,*61
1485374849.1,34609,10.5,73550.0,-12.21,-41.23,-41.41,0,*6C
1485374850.39,34610,10.5,73554.5,-12.19,-41.23,-41.55,0,*6A
1485374851.66,34611,10.5,73568.0,-12.19,-41.23,-41.41,0,*6E
1485374852.93,34612,10.5,73564.8,-12.21,-41.23,-41.35,0,*65
1485374854.2,34613,10.5,73564.0,-12.21,-41.23,-41.35,0,*64
1485374855.5,34614,10.5,73562.8,-12.19,-41.23,-41.23,0,*6F
1485374856.77,34615,10.5,73562.3,-12.21,-41.23,-41.35,0,*62
1485374858.0,34616,10.5,73566.5,-12.19,-41.17,-41.17,0,*6D
1485374859.27,34617,10.5,73562.8,-12.19,-41.17,-41.23,0,*6B
1485374860.54,34618,10.5,73562.5,-12.23,-41.23,-41.41,0,*6E
1485374861.77,34619,10.5,73560.0,-12.23,-41.11,-41.41,0,*6E
1485374863.02,34620,10.5,73566.3,-12.21,-41.03,-41.35,0,*66
1485374864.29,34621,10.5,73566.3,-12.23,-41.03,-41.23,0,*62
1485374865.55,34622,10.5,73570.8,-12.23,-40.85,-41.11,0,*6F
1485374866.82,34623,10.5,73570.8,-12.23,-40.85,-41.03,0,*6D
1485374868.09,34624,10.5,73570.3,-12.23,-41.03,-41.23,0,*67
1485374869.38,34625,10.5,73570.0,-12.23,-40.97,-40.97,0,*64
1485374870.64,34626,10.5,73566.0,-12.23,-40.47,-40.79,0,*6A
1485374871.88,34627,10.5,73564.5,-12.23,-40.47,-40.65,0,*66
1485374873.11,34628,10.44,73562.0,-12.23,-40.47,-40.65,0,*69
1485374874.4,34629,10.5,73566.3,-12.23,-40.79,-40.97,0,*68
1485374875.69,34630,10.5,73564.5,-12.23,-40.79,-40.85,0,*63
1485374876.98,34631,10.5,73562.5,-12.23,-40.85,-40.85,0,*61
1485374878.27,34632,10.5,73560.5,-12.23,-40.79,-40.97,0,*62
1485374879.53,34633,10.5,73562.5,-12.23,-40.47,-40.79,0,*6E
1485374880.79,34634,10.5,73566.0,-12.23,-40.59,-40.65,0,*6B
1485374882.08,34635,10.5,73566.8,-12.23,-40.41,-40.59,0,*6C
1485374883.34,34636,10.5,73564.8,-12.23,-40.59,-40.65,0,*69
1485374884.57,34637,10.5,73556.0,-12.21,-40.53,-40.79,0,*6D
1485374885.86,34638,10.5,73556.5,-12.23,-40.59,-40.59,0,*68
1485374887.14,34639,10.5,73558.0,-12.23,-40.59,-40.79,0,*6B
1485374888.43,34640,10.5,73552.5,-12.23,-40.59,-40.85,0,*66
1485374889.72,34641,10.5,73556.0,-12.23,-40.79,-40.85,0,*65
1485374890.97,34642,10.5,73554.0,-12.23,-40.65,-40.79,0,*68
1485374892.23,34643,10.5,73556.3,-12.23,-40.59,-40.65,0,*6B
1485374893.49,34644,10.5,73558.8,-12.23,-40.59,-40.65,0,*6C
1485374894.75,34645,10.5,73560.5,-12.23,-40.41,-40.65,0,*64
1485374896.01,34646,10.5,73562.3,-12.23,-40.59,-40.65,0,*6E
1485374897.27,34647,10.5,73562.3,-12.23,-40.59,-40.65,0,*6F
1485374898.53,34648,10.5,73556.5,-12.23,-40.47,-40.79,0,*62
1485374899.81,34649,10.5,73548.5,-12.23,-40.59,-40.79,0,*6C
1485374901.07,34650,10.5,73560.0,-12.23,-40.65,-40.79,0,*6B